Location: Unspecified
(0.0000°N, 0.0000°E)
Time: 10:57:28
(UTC+00:00)

JUGNU - Pass Details

Date: 17 December 2017
Orbit: 837 x 864 km, 20.0° (Epoch: 15 July)

Event Time Altitude Azimuth Distance (km) Brightness Sun altitude
Rises 18:40:12 0° 227° (SW) 3,416 ? -10.1°
Reaches altitude 10° 18:43:35 10° 209° (SSW) 2,474 ? -10.8°
Maximum altitude 18:47:37 19° 165° (SSE) 1,927 ? -11.7°
Drops below altitude 10° 18:51:39 10° 122° (ESE) 2,459 ? -12.7°
Enters shadow 18:53:08 - 113° (ESE) 2,846 ? -13.0°
